THOR ABLESTAR DEB

Satellite information

Favourite Embed

Satellite Type and Status

DEBRISIN ORBIT

Key statistics

Satellite THOR ABLESTAR DEB at a glance.

Uptime

23384

Days in orbit

Revolutions

≈ 14.2

Per day

Orbit

LEO

Low Earth Orbit

Inclination

66.9

Latest

Satellite identification and parameters

Extended collection of information and parameters for THOR ABLESTAR DEB.

Object identification

Identified? True

Debris? True

Object name: THOR ABLESTAR DEB

International designator: 1961-015DQ

Object number (NORAD): 350

Object ID (CCSDS): 350

Country: UNITED STATES OF AMERICA (US)

Current information (Y/N): Y

RCS size: MEDIUM

Orbital parameters

Period: 101.241 minutes

Inclination: 66.9126 deg

SMA: 7195.576 km

Apoapsis: 903.665 km

Periapsis: 731.218 km

RAAN: 35.5167 deg

Eccentricy: 0.0119829

Argument of periapsis: 48.7278 deg

Mean anomaly: 312.4063 deg

Mean motion: 14.22343115 rev/day

Mean motion (dot): 0.00000198 rev/day2

B* drag term: 0.00011682 1/REarth

Two-line elements (TLE)

Creation date: July 6, 2025, 6:05 p.m.

Reference frame: TEME

Reference center: EARTH

Epoch: July 6, 2025, 3:02 p.m. UTC

TLE line 0: 0 THOR ABLESTAR DEB

TLE line 1: 1 00350U 61015DQ 25187.62675406 .00000198 00000-0 11682-3 0 9999

TLE line 2: 2 00350 66.9126 35.5167 0119829 48.7278 312.4063 14.22343115313803

Live tracking on map

Real-time ground track for satellite THOR ABLESTAR DEB.

In-orbit conjunctions

A list of the most updated potential collisions computed for object THOR ABLESTAR DEB.

Target Orbit TCA Probability of collision Miss distance Type
THOR BURNER 2 R/B SSO 2025-01-03 00:12:36 0.0001684226 466.0 (m) ROCKET BODY
THORAD AGENA D DEB SSO 2024-11-12 13:27:35 0.0003660656 367.0 (m) DEBRIS

Associated space launch

THOR ABLESTAR DEB was lifted into orbit during the mission ‘Thor DM-21 Ablestar | Transit 4A & Injun-1 & Solrad 3’, on board a Thor DM-21 Ablestar space rocket.

The launch took place on June 29, 1961, 4:23 a.m. from Space Launch Complex 17B.

For more information about the launch, click the button.

Launch to space Thor DM-21 Ablestar | Transit 4A & Injun-1 & Solrad 3
Thor DM-21 Ablestar | Transit 4A & Injun-1 & Solrad 3

Agency: N/A

Status: Launch Successful

Launch date: June 29, 1961, 4:23 a.m. UTC

Rocket: Thor DM-21 Ablestar

Launch pad: Space Launch Complex 17B

Location: Cape Canaveral SFS, FL, USA

...

Latest news about this satellite

There are no fresh news available about this satellite. Check back as we update our databases every day.


Newsletter sign-up

Weekly statistics, charts and insights to help you stay on top of the space industry.